Погода в Элисе

США     27°44′58″N   98°04′10″W
темп.,
°C
ветер,
м/с
пор.,
м/с
влажн.,
%
обл.,
%
осадки,
мм/ч
давл.,
гПа
погр.,
м
31 июля, сб
сб3101:00+28ююв48762 0.0 1016436
04:00+27ю38773 0.0 1016402
07:00+26ю25825 0.0 1016199
10:00+31ю44590 0.0 1017839
13:00+35ююв44406 0.0 10161931
16:00+37ююв433485 0.0 10142781
19:00+33юв885314 0.1 1014915
22:00+28юв6117286 0.0 1015546
1 августа, вс
вс101:00+28ююв611775 0.0 1015611
04:00+27ю4108015 0.0 1014511
07:00+25ююв248611 0.0 1015109
10:00+31ююв456195 0.0 1016951
13:00+35ююв444041 0.0 10151811
16:00+37юв653598 0.0 10132467
19:00+32юв8859100 0.0 1013937
22:00+28юв69725 0.0 1015474
2 августа, пн
пн201:00+27ююв611806 0.0 1015484
04:00+26ююв41084100 0.0 1014459
07:00+25юв1190100 0.0 101511
10:00+29ю3467100 0.0 1016756
13:00+34ю2245100 0.0 10151769
16:00+37в1233100 0.0 10122641
19:00+33юв8752100 0.0 1012810
22:00+28ююв510755 0.0 1013437
3 августа, вт
вт301:00+28ююв510790 0.0 1013432
04:00+27ю39815 0.0 1013394
07:00+26ю268762 0.0 1013205
10:00+31ююз235921 0.0 1014810
13:00+35ююв224096 0.0 10131771
16:00+38вюв223396 0.1 10102958
19:00+34юв775030 0.1 1010793
22:00+29вюв5872100 0.1 1013530
4 августа, ср
ср401:00+28юв377879 0.7 1013322
04:00+27ю497884 0.0 1012315
07:00+26всв228378 0.0 101432
10:00+31вюв335770 0.0 1014818
13:00+36в434061 0.0 10142208
16:00+32в6651100 0.9 1013977
19:00+30в675996 1.2 1013631
22:00+28вюв5867100 0.0 1014548